Year,Month,Day,Hour,Minute,Value (Times are PST for temperature in C)
2007,06,25,00,00,9.70
2007,06,25,00,01,9.70
2007,06,25,00,02,9.80
2007,06,25,00,03,9.80
2007,06,25,00,04,9.80
2007,06,25,00,05,9.80
2007,06,25,00,06,9.80
2007,06,25,00,07,9.80
2007,06,25,00,08,9.80
2007,06,25,00,09,9.80
2007,06,25,00,10,9.80
2007,06,25,00,11,9.90
2007,06,25,00,12,9.90
2007,06,25,01,02,9.90
2007,06,25,01,03,9.90
2007,06,25,01,04,9.90
2007,06,25,01,05,9.90
2007,06,25,01,06,9.90
2007,06,25,01,07,10.00
2007,06,25,01,08,10.00
2007,06,25,01,09,10.00
2007,06,25,01,10,10.00
2007,06,25,01,11,10.00
2007,06,25,01,12,10.00
2007,06,25,01,13,10.00
2007,06,25,01,14,10.00
2007,06,25,01,15,10.00
2007,06,25,01,16,10.00
2007,06,25,01,17,9.90
2007,06,25,01,18,9.90
2007,06,25,01,19,9.90
2007,06,25,01,20,9.90
2007,06,25,01,21,9.90
2007,06,25,01,22,9.90
2007,06,25,01,23,9.90
2007,06,25,01,24,9.90
2007,06,25,01,25,9.90
2007,06,25,01,26,9.90
2007,06,25,01,27,9.90
2007,06,25,01,28,9.90
2007,06,25,01,29,9.80
2007,06,25,01,30,9.80
2007,06,25,01,31,9.80
2007,06,25,01,32,9.80
2007,06,25,01,33,9.80
2007,06,25,01,34,9.80
2007,06,25,01,35,9.80
2007,06,25,01,36,9.80
2007,06,25,01,37,9.80
2007,06,25,01,38,9.80
2007,06,25,01,39,9.80
2007,06,25,01,40,9.80
2007,06,25,01,41,9.80
2007,06,25,01,42,9.80
2007,06,25,01,43,9.80
2007,06,25,01,44,9.80
2007,06,25,01,45,9.80
2007,06,25,01,46,9.80
2007,06,25,01,47,9.90
2007,06,25,01,48,9.80
2007,06,25,01,49,9.80
2007,06,25,01,50,9.90
2007,06,25,01,51,9.90
2007,06,25,01,52,9.90
2007,06,25,01,53,9.90
2007,06,25,01,54,9.90
2007,06,25,01,55,9.90
2007,06,25,01,56,9.90
2007,06,25,01,57,9.90
2007,06,25,01,58,9.90
2007,06,25,01,59,9.90
2007,06,25,02,00,9.90
2007,06,25,02,01,9.90
2007,06,25,02,02,9.90
2007,06,25,02,03,10.00
2007,06,25,02,04,10.00
2007,06,25,02,05,10.00
2007,06,25,02,06,10.00
2007,06,25,02,07,10.00
2007,06,25,02,08,10.00
2007,06,25,02,09,10.10
2007,06,25,02,10,10.10
2007,06,25,02,11,10.10
2007,06,25,02,12,10.10
2007,06,25,02,13,10.10
2007,06,25,02,14,10.10
2007,06,25,02,15,10.10
2007,06,25,02,16,10.10
2007,06,25,02,17,10.10
2007,06,25,02,18,10.20
2007,06,25,02,19,10.20
2007,06,25,02,20,10.20
2007,06,25,02,21,10.20
2007,06,25,02,22,10.20
2007,06,25,02,23,10.20
2007,06,25,02,24,10.20
2007,06,25,02,25,10.20
2007,06,25,02,26,10.20
2007,06,25,02,27,10.20
2007,06,25,02,28,10.20
2007,06,25,02,29,10.20
2007,06,25,02,30,10.20
2007,06,25,02,31,10.20
2007,06,25,02,32,10.20
2007,06,25,02,33,10.20
2007,06,25,02,34,10.20
2007,06,25,02,35,10.20
2007,06,25,02,36,10.20
2007,06,25,02,37,10.20
2007,06,25,02,38,10.20
2007,06,25,02,39,10.20
2007,06,25,02,40,10.20
2007,06,25,02,41,10.20
2007,06,25,02,42,10.20
2007,06,25,02,43,10.20
2007,06,25,02,44,10.20
2007,06,25,02,45,10.20
2007,06,25,02,46,10.20
2007,06,25,02,47,10.10
2007,06,25,02,48,10.10
2007,06,25,02,49,10.10
2007,06,25,02,50,10.10
2007,06,25,02,51,10.10
2007,06,25,02,52,10.10
2007,06,25,02,53,10.00
2007,06,25,02,54,10.00
2007,06,25,02,55,10.00
2007,06,25,02,56,10.00
2007,06,25,02,57,10.00
2007,06,25,02,58,10.00
2007,06,25,02,59,10.00
2007,06,25,03,00,10.00
2007,06,25,03,01,9.90
2007,06,25,03,02,9.90
2007,06,25,03,03,9.90
2007,06,25,03,04,9.90
2007,06,25,03,05,9.90
2007,06,25,03,06,9.90
2007,06,25,03,07,9.90
2007,06,25,03,08,9.90
2007,06,25,03,09,9.90
2007,06,25,03,10,9.90
2007,06,25,03,11,9.90
2007,06,25,03,12,9.90
2007,06,25,03,13,9.90
2007,06,25,03,14,9.90
2007,06,25,03,15,9.90
2007,06,25,03,16,9.90
2007,06,25,03,17,9.90
2007,06,25,03,18,9.80
2007,06,25,03,19,9.80
2007,06,25,03,20,9.80
2007,06,25,03,21,9.80
2007,06,25,03,22,9.80
2007,06,25,03,23,9.80
2007,06,25,03,24,9.80
2007,06,25,03,25,9.80
2007,06,25,03,26,9.70
2007,06,25,03,27,9.70
2007,06,25,03,28,9.70
2007,06,25,03,29,9.70
2007,06,25,03,30,9.70
2007,06,25,03,31,9.70
2007,06,25,03,32,9.60
2007,06,25,03,33,9.60
2007,06,25,03,34,9.60
2007,06,25,03,35,9.60
2007,06,25,03,36,9.60
2007,06,25,03,37,9.60
2007,06,25,03,38,9.60
2007,06,25,03,39,9.60
2007,06,25,03,40,9.60
2007,06,25,03,41,9.50
2007,06,25,03,42,9.50
2007,06,25,03,43,9.50
2007,06,25,03,44,9.50
2007,06,25,03,45,9.40
2007,06,25,03,46,9.40
2007,06,25,03,47,9.40
2007,06,25,03,48,9.40
2007,06,25,03,49,9.40
2007,06,25,03,50,9.40
2007,06,25,03,51,9.30
2007,06,25,03,52,9.30
2007,06,25,03,53,9.30
2007,06,25,03,54,9.30
2007,06,25,03,55,9.30
2007,06,25,03,56,9.30
2007,06,25,03,57,9.30
2007,06,25,03,58,9.20
2007,06,25,03,59,9.20
2007,06,25,04,00,9.20
2007,06,25,04,01,9.20
2007,06,25,04,02,9.20
2007,06,25,04,03,9.20
2007,06,25,04,04,9.20
2007,06,25,04,05,9.20
2007,06,25,04,06,9.20
2007,06,25,04,07,9.20
2007,06,25,04,08,9.20
2007,06,25,04,09,9.20
2007,06,25,04,10,9.20
2007,06,25,04,11,9.20
2007,06,25,04,12,9.20
2007,06,25,04,13,9.20
2007,06,25,04,14,9.20
2007,06,25,04,15,9.20
2007,06,25,04,16,9.20
2007,06,25,04,17,9.20
2007,06,25,04,18,9.30
2007,06,25,04,19,9.30
2007,06,25,04,20,9.30
2007,06,25,04,21,9.30
2007,06,25,04,22,9.30
2007,06,25,04,23,9.30
2007,06,25,04,24,9.30
2007,06,25,04,25,9.40
2007,06,25,04,26,9.40
2007,06,25,04,27,9.40
2007,06,25,04,28,9.50
2007,06,25,04,29,9.50
2007,06,25,04,30,9.60
2007,06,25,04,31,9.60
2007,06,25,04,32,9.60
2007,06,25,04,33,9.60
2007,06,25,04,34,9.60
2007,06,25,04,35,9.60
2007,06,25,04,36,9.60
2007,06,25,04,37,9.70
2007,06,25,04,38,9.70
2007,06,25,04,39,9.70
2007,06,25,04,40,9.70
2007,06,25,04,41,9.70
2007,06,25,04,42,9.80
2007,06,25,04,43,9.80
2007,06,25,04,44,9.80
2007,06,25,04,45,9.80
2007,06,25,04,46,9.80
2007,06,25,04,47,9.80
2007,06,25,04,48,9.80
2007,06,25,04,49,9.80
2007,06,25,04,50,9.90
2007,06,25,04,51,9.90
2007,06,25,04,52,9.90
2007,06,25,04,53,9.90
2007,06,25,04,54,9.90
2007,06,25,04,55,9.90
2007,06,25,04,56,9.90
2007,06,25,04,57,9.90
2007,06,25,04,58,9.90
2007,06,25,04,59,9.90
2007,06,25,05,00,9.90
2007,06,25,05,01,10.00
2007,06,25,05,02,10.00
2007,06,25,05,03,10.00
2007,06,25,05,04,10.00
2007,06,25,05,05,10.00
2007,06,25,05,06,10.00
2007,06,25,05,07,10.00
2007,06,25,05,08,10.00
2007,06,25,05,09,10.00
2007,06,25,05,10,10.00
2007,06,25,05,11,10.00
2007,06,25,05,12,10.00
2007,06,25,05,13,10.00
2007,06,25,05,14,10.00
2007,06,25,05,15,10.00
2007,06,25,05,16,10.00
2007,06,25,05,17,10.00
2007,06,25,05,18,10.00
2007,06,25,05,19,10.00
2007,06,25,05,20,10.10
2007,06,25,05,21,10.00
2007,06,25,05,22,10.10
2007,06,25,05,23,10.10
2007,06,25,05,24,10.10
2007,06,25,05,25,10.10
2007,06,25,05,26,10.10
2007,06,25,05,27,10.10
2007,06,25,05,28,10.10
2007,06,25,05,29,10.10
2007,06,25,05,30,10.10
2007,06,25,05,31,10.10
2007,06,25,05,32,10.10
2007,06,25,05,33,10.10
2007,06,25,05,34,10.10
2007,06,25,05,35,10.10
2007,06,25,05,36,10.10
2007,06,25,05,37,10.10
2007,06,25,05,38,10.10
2007,06,25,05,39,10.10
2007,06,25,05,40,10.10
2007,06,25,05,41,10.10
2007,06,25,05,42,10.10
2007,06,25,05,43,10.10
2007,06,25,05,44,10.10
2007,06,25,05,45,10.10
2007,06,25,05,46,10.10
2007,06,25,05,47,10.10
2007,06,25,05,48,10.10
2007,06,25,05,49,10.10
2007,06,25,05,50,10.10
2007,06,25,05,51,10.10
2007,06,25,05,52,10.20
2007,06,25,05,53,10.20
2007,06,25,05,54,10.10
2007,06,25,05,55,10.20
2007,06,25,05,56,10.10
2007,06,25,05,57,10.10
2007,06,25,05,58,10.10
2007,06,25,05,59,10.10
2007,06,25,06,00,10.10
2007,06,25,06,01,10.10
2007,06,25,06,02,10.10
2007,06,25,06,03,10.10
2007,06,25,06,04,10.10
2007,06,25,06,05,10.20
2007,06,25,06,06,10.20
2007,06,25,06,07,10.20
2007,06,25,06,08,10.20
2007,06,25,06,09,10.20
2007,06,25,06,10,10.20
2007,06,25,06,11,10.20
2007,06,25,06,12,10.20
2007,06,25,06,13,10.20
2007,06,25,06,14,10.20
2007,06,25,06,15,10.20
2007,06,25,06,16,10.20
2007,06,25,06,17,10.20
2007,06,25,06,18,10.20
2007,06,25,06,19,10.20
2007,06,25,06,20,10.20
2007,06,25,06,21,10.20
2007,06,25,06,22,10.20
2007,06,25,06,23,10.20
2007,06,25,06,24,10.20
2007,06,25,06,25,10.20
2007,06,25,06,26,10.20
2007,06,25,06,27,10.20
2007,06,25,06,28,10.20
2007,06,25,06,29,10.20
2007,06,25,06,30,10.20
2007,06,25,06,31,10.20
2007,06,25,06,32,10.20
2007,06,25,06,33,10.20
2007,06,25,06,34,10.20
2007,06,25,06,35,10.20
2007,06,25,06,36,10.20
2007,06,25,06,37,10.20
2007,06,25,06,38,10.20
2007,06,25,06,39,10.20
2007,06,25,06,40,10.20
2007,06,25,06,41,10.30
2007,06,25,06,42,10.30
2007,06,25,06,43,10.30
2007,06,25,06,44,10.30
2007,06,25,06,45,10.30
2007,06,25,06,46,10.40
2007,06,25,06,47,10.40
2007,06,25,06,48,10.50
2007,06,25,06,49,10.50
2007,06,25,06,50,10.60
2007,06,25,06,51,10.60
2007,06,25,06,52,10.60
2007,06,25,06,53,10.70
2007,06,25,06,54,10.70
2007,06,25,06,55,10.70
2007,06,25,06,56,10.80
2007,06,25,06,57,10.80
2007,06,25,06,58,10.80
2007,06,25,06,59,10.80
2007,06,25,07,00,10.80
2007,06,25,07,01,10.90
2007,06,25,07,02,10.90
2007,06,25,07,03,10.90
2007,06,25,07,04,10.90
2007,06,25,07,05,11.00
2007,06,25,07,06,11.00
2007,06,25,07,07,11.00
2007,06,25,07,08,11.10
2007,06,25,07,09,11.10
2007,06,25,07,10,11.10
2007,06,25,07,11,11.10
2007,06,25,07,12,11.10
2007,06,25,07,13,11.10
2007,06,25,07,14,11.10
2007,06,25,07,15,11.20
2007,06,25,07,16,11.20
2007,06,25,07,17,11.20
2007,06,25,07,18,11.20
2007,06,25,07,19,11.20
2007,06,25,07,20,11.20
2007,06,25,07,21,11.30
2007,06,25,07,22,11.30
2007,06,25,07,23,11.30
2007,06,25,07,24,11.30
2007,06,25,07,25,11.30
2007,06,25,07,26,11.30
2007,06,25,07,27,11.30
2007,06,25,07,28,11.40
2007,06,25,07,29,11.40
2007,06,25,07,30,11.40
2007,06,25,07,31,11.40
2007,06,25,07,32,11.40
2007,06,25,07,33,11.40
2007,06,25,07,34,11.50
2007,06,25,07,35,11.50
2007,06,25,07,36,11.50
2007,06,25,07,37,11.50
2007,06,25,07,38,11.50
2007,06,25,07,39,11.50
2007,06,25,07,40,11.60
2007,06,25,07,41,11.60
2007,06,25,07,42,11.60
2007,06,25,07,43,11.60
2007,06,25,07,44,11.60
2007,06,25,07,45,11.60
2007,06,25,07,46,11.60
2007,06,25,07,47,11.60
2007,06,25,07,48,11.70
2007,06,25,07,49,11.70
2007,06,25,07,50,11.70
2007,06,25,07,51,11.70
2007,06,25,07,52,11.70
2007,06,25,07,53,11.80
2007,06,25,07,54,11.80
2007,06,25,07,55,11.80
2007,06,25,07,56,11.90
2007,06,25,07,57,12.00
2007,06,25,07,58,12.00
2007,06,25,07,59,12.10
2007,06,25,08,00,12.10
2007,06,25,08,01,12.20
2007,06,25,08,02,12.20
2007,06,25,08,03,12.30
2007,06,25,08,04,12.30
2007,06,25,08,05,12.40
2007,06,25,08,06,12.40
2007,06,25,08,07,12.40
2007,06,25,08,08,12.40
2007,06,25,08,09,12.40
2007,06,25,08,10,12.50
2007,06,25,08,11,12.50
2007,06,25,08,12,12.50
2007,06,25,08,13,12.60
2007,06,25,08,14,12.60
2007,06,25,08,15,12.70
2007,06,25,08,16,12.80
2007,06,25,08,17,12.80
2007,06,25,08,18,12.90
2007,06,25,08,19,12.90
2007,06,25,08,20,13.00
2007,06,25,08,21,13.00
2007,06,25,08,22,13.10
2007,06,25,08,23,13.00
2007,06,25,08,24,13.00
2007,06,25,08,25,13.00
2007,06,25,08,26,13.00
2007,06,25,08,27,13.00
2007,06,25,08,28,13.10
2007,06,25,08,29,13.10
2007,06,25,08,30,13.20
2007,06,25,08,31,13.20
2007,06,25,08,32,13.20
2007,06,25,08,33,13.20
2007,06,25,08,34,13.20
2007,06,25,08,35,13.20
2007,06,25,08,36,13.30
2007,06,25,08,37,13.30
2007,06,25,08,38,13.20
2007,06,25,08,39,13.20
2007,06,25,08,40,13.20
2007,06,25,08,41,13.20
2007,06,25,08,42,13.20
2007,06,25,08,43,13.30
2007,06,25,08,44,13.30
2007,06,25,08,45,13.40
2007,06,25,08,46,13.40
2007,06,25,08,47,13.40
2007,06,25,08,48,13.40
2007,06,25,08,49,13.40
2007,06,25,08,50,13.40
2007,06,25,08,51,13.30
2007,06,25,08,52,13.30
2007,06,25,08,53,13.30
2007,06,25,08,54,13.20
2007,06,25,08,55,13.30
2007,06,25,08,56,13.30
2007,06,25,08,57,13.30
2007,06,25,08,58,13.30
2007,06,25,08,59,13.30
2007,06,25,09,00,13.40
2007,06,25,09,01,13.40
2007,06,25,09,02,13.50
2007,06,25,09,03,13.50
2007,06,25,09,04,13.50
2007,06,25,09,05,13.60
2007,06,25,09,06,13.70
2007,06,25,09,07,13.70
2007,06,25,09,08,13.70
2007,06,25,09,09,13.80
2007,06,25,09,10,13.80
2007,06,25,09,11,13.90
2007,06,25,09,12,14.00
2007,06,25,09,13,14.10
2007,06,25,09,14,14.20
2007,06,25,09,15,14.20
2007,06,25,09,16,14.30
2007,06,25,09,17,14.30
2007,06,25,09,18,14.30
2007,06,25,09,19,14.30
2007,06,25,09,20,14.40
2007,06,25,09,21,14.40
2007,06,25,09,22,14.40
2007,06,25,09,23,14.40
2007,06,25,09,24,14.40
2007,06,25,09,25,14.30
2007,06,25,09,26,14.30
2007,06,25,09,27,14.30
2007,06,25,09,28,14.40
2007,06,25,09,29,14.40
2007,06,25,09,30,14.40
2007,06,25,09,31,14.50
2007,06,25,09,32,14.50
2007,06,25,09,33,14.50
2007,06,25,09,34,14.50
2007,06,25,09,35,14.60
2007,06,25,09,36,14.50
2007,06,25,09,37,14.50
2007,06,25,09,38,14.40
2007,06,25,09,39,14.50
2007,06,25,09,40,14.60
2007,06,25,09,41,14.60
2007,06,25,09,42,14.70
2007,06,25,09,43,14.80
2007,06,25,09,44,14.90
2007,06,25,09,45,15.00
2007,06,25,09,46,15.00
2007,06,25,09,47,15.00
2007,06,25,09,48,15.00
2007,06,25,09,49,15.00
2007,06,25,09,50,15.10
2007,06,25,09,51,15.10
2007,06,25,09,52,15.10
2007,06,25,09,53,15.10
2007,06,25,09,54,15.20
2007,06,25,09,55,15.30
2007,06,25,09,56,15.40
2007,06,25,09,57,15.40
2007,06,25,09,58,15.40
2007,06,25,09,59,15.40
2007,06,25,10,00,15.40
2007,06,25,10,01,15.40
2007,06,25,10,02,15.40
2007,06,25,10,03,15.40
2007,06,25,10,04,15.50
2007,06,25,10,05,15.50
2007,06,25,10,06,15.40
2007,06,25,10,07,15.40
2007,06,25,10,08,15.40
2007,06,25,10,09,15.40
2007,06,25,10,10,15.40
2007,06,25,10,11,15.40
2007,06,25,10,12,15.50
2007,06,25,10,13,15.60
2007,06,25,10,14,15.70
2007,06,25,10,15,15.80
2007,06,25,10,16,15.80
2007,06,25,10,17,15.90
2007,06,25,10,18,15.90
2007,06,25,10,19,15.90
2007,06,25,10,20,15.90
2007,06,25,10,21,15.90
2007,06,25,10,22,15.90
2007,06,25,10,23,16.00
2007,06,25,10,24,16.00
2007,06,25,10,25,16.10
2007,06,25,10,26,16.10
2007,06,25,10,27,16.20
2007,06,25,10,28,16.30
2007,06,25,10,29,16.30
2007,06,25,10,30,16.20
2007,06,25,10,31,16.20
2007,06,25,10,32,16.20
2007,06,25,10,33,16.20
2007,06,25,10,34,16.20
2007,06,25,10,35,16.20
2007,06,25,10,36,16.20
2007,06,25,10,37,16.20
2007,06,25,10,38,16.30
2007,06,25,10,39,16.20
2007,06,25,10,40,16.10
2007,06,25,10,41,16.00
2007,06,25,10,42,15.90
2007,06,25,10,43,15.80
2007,06,25,10,44,15.70
2007,06,25,10,45,15.70
2007,06,25,10,46,15.70
2007,06,25,10,47,15.60
2007,06,25,10,48,15.50
2007,06,25,10,49,15.40
2007,06,25,10,50,15.40
2007,06,25,10,51,15.40
2007,06,25,10,52,15.40
2007,06,25,10,53,15.30
2007,06,25,10,54,15.10
2007,06,25,10,55,15.00
2007,06,25,10,56,15.00
2007,06,25,10,57,15.00
2007,06,25,10,58,15.00
2007,06,25,10,59,15.00
2007,06,25,11,00,15.00
2007,06,25,11,01,15.00
2007,06,25,11,02,15.00
2007,06,25,11,03,15.00
2007,06,25,11,04,15.20
2007,06,25,11,05,15.30
2007,06,25,11,06,15.40
2007,06,25,11,07,15.50
2007,06,25,11,08,15.60
2007,06,25,11,09,15.80
2007,06,25,11,10,16.10
2007,06,25,11,11,16.20
2007,06,25,11,12,16.30
2007,06,25,11,13,16.40
2007,06,25,11,14,16.40
2007,06,25,11,15,16.40
2007,06,25,11,16,16.30
2007,06,25,11,17,16.20
2007,06,25,11,18,16.00
2007,06,25,11,19,15.70
2007,06,25,11,20,15.20
2007,06,25,11,21,15.00
2007,06,25,11,22,14.80
2007,06,25,11,23,14.50
2007,06,25,11,24,14.30
2007,06,25,11,25,14.10
2007,06,25,11,26,13.90
2007,06,25,11,27,13.70
2007,06,25,11,28,13.60
2007,06,25,11,29,13.40
2007,06,25,11,30,13.30
2007,06,25,11,31,13.20
2007,06,25,11,32,13.10
2007,06,25,11,33,13.00
2007,06,25,11,34,12.90
2007,06,25,11,35,12.80
2007,06,25,11,36,12.70
2007,06,25,11,37,12.60
2007,06,25,11,38,12.50
2007,06,25,11,39,12.40
2007,06,25,11,40,12.30
2007,06,25,11,41,12.20
2007,06,25,11,42,12.10
2007,06,25,11,43,12.10
2007,06,25,11,44,12.20
2007,06,25,11,45,12.30
2007,06,25,11,46,12.50
2007,06,25,11,47,12.60
2007,06,25,11,48,12.60
2007,06,25,11,49,12.50
2007,06,25,11,50,12.50
2007,06,25,11,51,12.60
2007,06,25,11,52,12.80
2007,06,25,11,53,13.00
2007,06,25,11,54,13.10
2007,06,25,11,55,13.20
2007,06,25,11,56,13.30
2007,06,25,11,57,13.30
2007,06,25,11,58,13.30
2007,06,25,11,59,13.50
2007,06,25,12,00,13.60
2007,06,25,12,01,13.70
2007,06,25,12,02,13.80
2007,06,25,12,03,13.90
2007,06,25,12,04,13.90
2007,06,25,12,05,13.80
2007,06,25,12,06,13.60
2007,06,25,12,07,13.40
2007,06,25,12,08,13.20
2007,06,25,12,09,13.00
2007,06,25,12,10,12.90
2007,06,25,12,11,12.90
2007,06,25,12,12,12.90
2007,06,25,12,13,12.90
2007,06,25,12,14,13.00
2007,06,25,12,15,13.10
2007,06,25,12,16,13.20
2007,06,25,12,17,13.30
2007,06,25,12,18,13.40
2007,06,25,12,19,13.40
2007,06,25,12,20,13.40
2007,06,25,12,21,13.30
2007,06,25,12,22,13.20
2007,06,25,12,23,13.10
2007,06,25,12,24,13.10
2007,06,25,12,25,13.10
2007,06,25,12,26,13.20
2007,06,25,12,27,13.40
2007,06,25,12,28,13.50
2007,06,25,12,29,13.50
2007,06,25,12,30,13.50
2007,06,25,12,31,13.50
2007,06,25,12,32,13.50
2007,06,25,12,33,13.40
2007,06,25,12,34,13.40
2007,06,25,12,35,13.40
2007,06,25,12,36,13.30
2007,06,25,12,37,13.30
2007,06,25,12,38,13.30
2007,06,25,12,39,13.30
2007,06,25,12,40,13.40
2007,06,25,12,41,13.40
2007,06,25,12,42,13.40
2007,06,25,12,43,13.50
2007,06,25,12,44,13.60
2007,06,25,12,45,13.60
2007,06,25,12,46,13.70
2007,06,25,12,47,13.60
2007,06,25,12,48,13.60
2007,06,25,12,49,13.60
2007,06,25,12,50,13.60
2007,06,25,12,51,13.50
2007,06,25,12,52,13.50
2007,06,25,12,53,13.40
2007,06,25,12,54,13.20
2007,06,25,12,55,13.20
2007,06,25,12,56,13.20
2007,06,25,12,57,13.20
2007,06,25,12,58,13.30
2007,06,25,12,59,13.40
2007,06,25,13,00,13.50
2007,06,25,13,01,13.60
2007,06,25,13,02,13.80
2007,06,25,13,03,13.90
2007,06,25,13,04,13.90
2007,06,25,13,05,13.90
2007,06,25,13,06,13.80
2007,06,25,13,07,13.70
2007,06,25,13,08,13.60
2007,06,25,13,09,13.60
2007,06,25,13,10,13.60
2007,06,25,13,11,13.60
2007,06,25,13,12,13.80
2007,06,25,13,13,13.80
2007,06,25,13,14,13.90
2007,06,25,13,15,14.00
2007,06,25,13,16,14.00
2007,06,25,13,17,14.00
2007,06,25,13,18,13.90
2007,06,25,13,19,13.80
2007,06,25,13,20,13.80
2007,06,25,13,21,14.00
2007,06,25,13,22,14.10
2007,06,25,13,23,14.10
2007,06,25,13,24,14.20
2007,06,25,13,25,14.20
2007,06,25,13,26,14.30
2007,06,25,13,27,14.30
2007,06,25,13,28,14.30
2007,06,25,13,29,14.20
2007,06,25,13,30,14.30
2007,06,25,13,31,14.30
2007,06,25,13,32,14.30
2007,06,25,13,33,14.20
2007,06,25,13,34,14.00
2007,06,25,13,35,13.80
2007,06,25,13,36,13.70
2007,06,25,13,37,13.70
2007,06,25,13,38,13.80
2007,06,25,13,39,13.80
2007,06,25,13,40,13.90
2007,06,25,13,41,14.00
2007,06,25,13,42,14.10
2007,06,25,13,43,14.20
2007,06,25,13,44,14.30
2007,06,25,13,45,14.20
2007,06,25,13,46,14.00
2007,06,25,13,47,13.80
2007,06,25,13,48,13.40
2007,06,25,13,49,13.20
2007,06,25,13,50,13.10
2007,06,25,13,51,13.00
2007,06,25,13,52,13.00
2007,06,25,13,53,13.10
2007,06,25,13,54,13.20
2007,06,25,13,55,13.30
2007,06,25,13,56,13.40
2007,06,25,13,57,13.60
2007,06,25,13,58,13.70
2007,06,25,13,59,13.80
2007,06,25,14,00,13.90
2007,06,25,14,01,13.90
2007,06,25,14,02,13.80
2007,06,25,14,03,13.80
2007,06,25,14,04,13.70
2007,06,25,14,05,13.60
2007,06,25,14,06,13.60
2007,06,25,14,07,13.80
2007,06,25,14,08,13.80
2007,06,25,14,09,13.80
2007,06,25,14,10,13.90
2007,06,25,14,11,14.00
2007,06,25,14,12,14.10
2007,06,25,14,13,14.10
2007,06,25,14,14,14.20
2007,06,25,14,15,14.30
2007,06,25,14,16,14.30
2007,06,25,14,17,14.30
2007,06,25,14,18,14.40
2007,06,25,14,19,14.40
2007,06,25,14,20,14.40
2007,06,25,14,21,14.30
2007,06,25,14,22,14.30
2007,06,25,14,23,14.20
2007,06,25,14,24,14.20
2007,06,25,14,25,14.10
2007,06,25,14,26,14.00
2007,06,25,14,27,14.10
2007,06,25,14,28,14.20
2007,06,25,14,29,14.30
2007,06,25,14,30,14.40
2007,06,25,14,31,14.50
2007,06,25,14,32,14.60
2007,06,25,14,33,14.80
2007,06,25,14,34,14.80
2007,06,25,14,35,14.80
2007,06,25,14,36,14.80
2007,06,25,14,37,14.80
2007,06,25,14,38,14.80
2007,06,25,14,39,14.70
2007,06,25,14,40,14.60
2007,06,25,14,41,14.60
2007,06,25,14,42,14.60
2007,06,25,14,43,14.50
2007,06,25,14,44,14.50
2007,06,25,14,45,14.40
2007,06,25,14,46,14.30
2007,06,25,14,47,14.30
2007,06,25,14,48,14.20
2007,06,25,14,49,14.20
2007,06,25,14,50,14.30
2007,06,25,14,51,14.30
2007,06,25,14,52,14.30
2007,06,25,14,53,14.30
2007,06,25,14,54,14.30
2007,06,25,14,55,14.40
2007,06,25,14,56,14.40
2007,06,25,14,57,14.50
2007,06,25,14,58,14.50
2007,06,25,14,59,14.60
2007,06,25,15,00,14.50
2007,06,25,15,01,14.30
2007,06,25,15,02,14.30
2007,06,25,15,03,14.20
2007,06,25,15,04,14.20
2007,06,25,15,05,14.20
2007,06,25,15,06,14.20
2007,06,25,15,07,14.20
2007,06,25,15,08,14.20
2007,06,25,15,09,14.20
2007,06,25,15,10,14.30
2007,06,25,15,11,14.30
2007,06,25,15,12,14.30
2007,06,25,15,13,14.30
2007,06,25,15,14,14.40
2007,06,25,15,15,14.50
2007,06,25,15,16,14.60
2007,06,25,15,17,14.60
2007,06,25,15,18,14.70
2007,06,25,15,19,14.70
2007,06,25,15,20,14.80
2007,06,25,15,21,14.80
2007,06,25,15,22,15.00
2007,06,25,15,23,15.00
2007,06,25,15,24,15.00
2007,06,25,15,25,15.00
2007,06,25,15,26,15.00
2007,06,25,15,27,15.00
2007,06,25,15,28,15.00
2007,06,25,15,29,15.00
2007,06,25,15,30,15.00
2007,06,25,15,31,15.00
2007,06,25,15,32,15.00
2007,06,25,15,33,15.00
2007,06,25,15,34,15.00
2007,06,25,15,35,15.00
2007,06,25,15,36,15.00
2007,06,25,15,37,15.00
2007,06,25,15,38,15.10
2007,06,25,15,39,15.30
2007,06,25,15,40,15.50
2007,06,25,15,41,15.50
2007,06,25,15,42,15.50
2007,06,25,15,43,15.50
2007,06,25,15,44,15.40
2007,06,25,15,45,15.30
2007,06,25,15,46,15.20
2007,06,25,15,47,15.10
2007,06,25,15,48,15.00
2007,06,25,15,49,15.00
2007,06,25,15,50,15.00
2007,06,25,15,51,15.00
2007,06,25,15,52,15.00
2007,06,25,15,53,15.00
2007,06,25,15,54,15.00
2007,06,25,15,55,15.00
2007,06,25,15,56,15.00
2007,06,25,15,57,15.00
2007,06,25,15,58,15.00
2007,06,25,15,59,15.00
2007,06,25,16,00,15.00
2007,06,25,16,01,15.00
2007,06,25,16,02,15.20
2007,06,25,16,03,15.20
2007,06,25,16,04,15.20
2007,06,25,16,05,15.20
2007,06,25,16,06,15.20
2007,06,25,16,07,15.10
2007,06,25,16,08,15.00
2007,06,25,16,09,15.00
2007,06,25,16,10,15.00
2007,06,25,16,11,15.20
2007,06,25,16,12,15.30
2007,06,25,16,13,15.50
2007,06,25,16,14,15.60
2007,06,25,16,15,15.40
2007,06,25,16,16,15.30
2007,06,25,16,17,15.20
2007,06,25,16,18,15.00
2007,06,25,16,19,15.00
2007,06,25,16,20,14.90
2007,06,25,16,21,14.80
2007,06,25,16,22,14.70
2007,06,25,16,23,14.60
2007,06,25,16,24,14.60
2007,06,25,16,25,14.60
2007,06,25,16,26,14.60
2007,06,25,16,27,14.70
2007,06,25,16,28,14.70
2007,06,25,16,29,14.80
2007,06,25,16,30,14.90
2007,06,25,16,31,15.00
2007,06,25,16,32,15.10
2007,06,25,16,33,15.30
2007,06,25,16,34,15.40
2007,06,25,16,35,15.50
2007,06,25,16,36,15.50
2007,06,25,16,37,15.50
2007,06,25,16,38,15.50
2007,06,25,16,39,15.40
2007,06,25,16,40,15.40
2007,06,25,16,41,15.40
2007,06,25,16,42,15.50
2007,06,25,16,43,15.50
2007,06,25,16,44,15.50
2007,06,25,16,45,15.40
2007,06,25,16,46,15.40
2007,06,25,16,47,15.40
2007,06,25,16,48,15.50
2007,06,25,16,49,15.60
2007,06,25,16,50,15.60
2007,06,25,16,51,15.70
2007,06,25,16,52,15.80
2007,06,25,16,53,15.80
2007,06,25,16,54,15.80
2007,06,25,16,55,15.90
2007,06,25,16,56,15.90
2007,06,25,16,57,15.90
2007,06,25,16,58,16.00
2007,06,25,16,59,16.00
2007,06,25,17,00,15.90
2007,06,25,17,01,15.90
2007,06,25,17,02,15.80
2007,06,25,17,03,15.90
2007,06,25,17,04,15.90
2007,06,25,17,05,15.90
2007,06,25,17,06,15.80
2007,06,25,17,07,15.70
2007,06,25,17,08,15.60
2007,06,25,17,09,15.50
2007,06,25,17,10,15.50
2007,06,25,17,11,15.60
2007,06,25,17,12,15.50
2007,06,25,17,13,15.50
2007,06,25,17,14,15.50
2007,06,25,17,15,15.50
2007,06,25,17,16,15.50
2007,06,25,17,17,15.60
2007,06,25,17,18,15.70
2007,06,25,17,19,15.70
2007,06,25,17,20,15.80
2007,06,25,17,21,16.00
2007,06,25,17,22,16.10
2007,06,25,17,23,16.20
2007,06,25,17,24,16.30
2007,06,25,17,25,16.30
2007,06,25,17,26,16.30
2007,06,25,17,27,16.20
2007,06,25,17,28,16.10
2007,06,25,17,29,16.00
2007,06,25,17,30,15.90
2007,06,25,17,31,15.80
2007,06,25,17,32,15.60
2007,06,25,17,33,15.50
2007,06,25,17,34,15.40
2007,06,25,17,35,15.30
2007,06,25,17,36,15.30
2007,06,25,17,37,15.30
2007,06,25,17,38,15.40
2007,06,25,17,39,15.30
2007,06,25,17,40,15.30
2007,06,25,17,41,15.30
2007,06,25,17,42,15.30
2007,06,25,17,43,15.50
2007,06,25,17,44,15.50
2007,06,25,17,45,15.60
2007,06,25,17,46,15.60
2007,06,25,17,47,15.70
2007,06,25,17,48,15.80
2007,06,25,17,49,15.80
2007,06,25,17,50,15.80
2007,06,25,17,51,15.90
2007,06,25,17,52,15.90
2007,06,25,17,53,15.90
2007,06,25,17,54,15.90
2007,06,25,17,55,15.80
2007,06,25,17,56,15.80
2007,06,25,17,57,15.70
2007,06,25,17,58,15.60
2007,06,25,17,59,15.60
2007,06,25,18,00,15.60
2007,06,25,18,01,15.60
2007,06,25,18,02,15.60
2007,06,25,18,03,15.60
2007,06,25,18,04,15.60
2007,06,25,18,05,15.60
2007,06,25,18,06,15.60
2007,06,25,18,07,15.60
2007,06,25,18,08,15.70
2007,06,25,18,09,15.70
2007,06,25,18,10,15.70
2007,06,25,18,11,15.70
2007,06,25,18,12,15.80
2007,06,25,18,13,15.80
2007,06,25,18,14,15.80
2007,06,25,18,15,15.80
2007,06,25,18,16,15.80